This demonstration page uses our WeatherBlox Daily Observations layout. Learn more.

Left ArrowRight Arrow

44.8408, -93.29828

Hourly Observations for December 25, 2017

Temp ( °F °C ) Dew Point ( °F °C ) Humidity (%) Winds ( mph kmh ) Pressure ( in mb ) Visibility ( mi km ) Precip ( " mm )
12:53 am 00:53 Partly Cloudy 2 -16.7 -5 -20.6 72 72 WNW 9 15 30.20 1023 10 16 0.00 0.00
1:53 am 01:53 Cloudy 3 -16.1 -5 -20.6 69 69 WNW 9 15 30.21 1023 10 16 0.00 0.00
2:53 am 02:53 Mostly Cloudy 2 -16.7 -4 -20 76 76 WNW 8 13 30.23 1024 10 16 0.00 0.03
3:53 am 03:53 Mostly Cloudy 2 -16.7 -4 -20 76 76 W 8 13 30.23 1024 10 16 0.00 0.00
4:53 am 04:53 Mostly Cloudy 2 -16.7 -3 -19.4 80 80 W 7 11 30.23 1024 8 13 0.00 0.00
5:00 am 05:00 Cloudy with Haze 2 -16.7 -3 -19.4 80 80 W 7 11 30.27 1025 6 10 0.00 0.00
5:34 am 05:34 Cloudy 2 -16.7 -3 -19.4 80 80 W 8 13 30.27 1025 10 16 0.00 0.00
5:53 am 05:53 Cloudy with Light Snow 2 -16.7 -2 -18.9 83 83 W 8 13 30.25 1024 5 8 0.00 0.03
6:43 am 06:43 Cloudy with Mist and Fog 1 -17.2 -3 -19.4 83 83 NW 15 24 30.33 1027 6 10 0.00 0.03
6:53 am 06:53 Mostly Cloudy 1 -17.2 -3 -19.4 83 83 NW 14 22 30.27 1025 8 13 0.00 0.03
7:03 am 07:03 Partly Cloudy 1 -17.2 -4 -20 79 79 NW 14 22 30.33 1027 10 16 0.00 0.00
7:53 am 07:53 Partly Cloudy 0 -17.8 -7 -21.7 72 72 NNW 16 26 30.30 1026 10 16 0.00 0.00
8:53 am 08:53 Partly Cloudy -2 -18.9 -11 -23.9 65 65 NNW 18 30 30.34 1028 10 16 0.00 0.00
9:53 am 09:53 Mostly Sunny -3 -19.4 -13 -25 61 61 NNW 20 31 30.39 1029 10 16 0.00 0.00
10:53 am 10:53 Partly Cloudy -2 -18.9 -13 -25 59 59 NW 18 30 30.41 1030 10 16 0.00 0.00
11:53 am 11:53 Mostly Sunny -2 -18.9 -14 -25.6 56 56 NW 15 24 30.41 1030 10 16 0.00 0.00
12:44 pm 12:44 Mostly Cloudy -1 -18.3 -12 -24.4 59 59 WNW 16 26 30.45 1031 9 14 0.00 0.00
12:53 pm 12:53 Mostly Cloudy -1 -18.3 -11 -23.9 62 62 W 14 22 30.40 1030 9 14 0.00 0.00
1:22 pm 13:22 Mostly Sunny -1 -18.3 -13 -25 56 56 WNW 15 24 30.45 1031 10 16 0.00 0.00
1:53 pm 13:53 Mostly Cloudy -1 -18.3 -12 -24.4 59 59 WNW 21 33 30.41 1030 10 16 0.00 0.00
2:53 pm 14:53 Sunny -2 -18.9 -13 -25 59 59 WNW 14 22 30.42 1030 10 16 0.00 0.00
3:53 pm 15:53 Mostly Sunny -2 -18.9 -14 -25.6 56 56 WNW 13 20 30.43 1030 10 16 0.00 0.00
4:53 pm 16:53 Mostly Clear -3 -19.4 -13 -25 61 61 WNW 12 19 30.44 1031 10 16 0.00 0.00
5:53 pm 17:53 Clear -3 -19.4 -13 -25 61 61 WNW 14 22 30.46 1031 10 16 0.00 0.00
6:53 pm 18:53 Clear -3 -19.4 -13 -25 61 61 W 13 20 30.48 1032 10 16 0.00 0.00
7:53 pm 19:53 Clear -3 -19.4 -12 -24.4 65 65 W 12 19 30.49 1032 10 16 0.00 0.00
8:53 pm 20:53 Clear -4 -20 -13 -25 65 65 WNW 13 20 30.51 1033 10 16 0.00 0.00
9:53 pm 21:53 Clear -4 -20 -13 -25 65 65 WNW 13 20 30.52 1034 10 16 0.00 0.00
10:53 pm 22:53 Clear -5 -20.6 -13 -25 68 68 WNW 10 17 30.53 1034 10 16 0.00 0.00
11:53 pm 23:53 Clear -6 -21.1 -13 -25 71 71 WNW 9 15 30.55 1034 10 16 0.00 0.00

Powered by AerisWeather